This demonstration page uses our WeatherBlox Daily Observations layout. Learn more.

38.89511, -77.03637

Hourly Observations for October 18, 2015

Temp ( °F °C ) Dew Point ( °F °C ) Humidity (%) Winds ( mph kmh ) Pressure ( in mb ) Visibility ( mi km ) Precip ( " mm )
12:52 am 00:52 Clear 44 6.7 27 -2.8 51 51 WNW 10 17 30.31 1026 10 16.0934 0 0
1:52 am 01:52 Clear 42 5.6 27 -2.8 55 55 NW 7 11 30.3 1026 10 16.0934 0 0
2:52 am 02:52 Clear 43 6.1 27 -2.8 53 53 NW 9 15 30.3 1026 10 16.0934 0 0
3:52 am 03:52 Clear 42 5.6 27 -2.8 55 55 NW 6 9 30.3 1026 10 16.0934 0 0
4:52 am 04:52 Clear 41 5 28 -2.2 60 60 W 3 6 30.32 1027 10 16.0934 0 0
5:52 am 05:52 Clear 42 5.6 28 -2.2 58 58 NW 12 19 30.32 1027 10 16.0934 0 0
6:52 am 06:52 Clear 41 5 28 -2.2 60 60 NW 13 20 30.34 1027 10 16.0934 0 0
7:52 am 07:52 Partly Cloudy 41 5 28 -2.2 60 60 WNW 9 15 30.36 1028 10 16.0934 0 0
8:52 am 08:52 Partly Cloudy 44 6.7 28 -2.2 53 53 NW 9 15 30.38 1029 10 16.0934 0 0
9:52 am 09:52 Partly Cloudy 46 7.8 29 -1.7 51 51 NNW 10 17 30.39 1029 10 16.0934 0 0
10:52 am 10:52 Partly Cloudy 48 8.9 29 -1.7 48 48 NNW 10 17 30.39 1029 10 16.0934 0 0
11:52 am 11:52 Partly Cloudy 52 11.1 30 -1.1 43 43 WNW 13 20 30.37 1028 10 16.0934 0 0
12:52 pm 12:52 Mostly Cloudy 51 10.6 26 -3.3 38 38 NW 16 26 30.36 1028 10 16.0934 0 0
1:52 pm 13:52 Mostly Cloudy 50 10 28 -2.2 43 43 NW 10 17 30.35 1028 10 16.0934 0 0
2:52 pm 14:52 Mostly Cloudy 53 11.7 26 -3.3 35 35 NW 18 30 30.35 1028 10 16.0934 0 0
3:52 pm 15:52 Mostly Cloudy 54 12.2 25 -3.9 33 33 WNW 15 24 30.34 1027 10 16.0934 0 0
4:52 pm 16:52 Mostly Cloudy 53 11.7 26 -3.3 35 35 N 14 22 30.35 1028 10 16.0934 0 0.0254
5:52 pm 17:52 Partly Cloudy 51 10.6 26 -3.3 38 38 NW 15 24 30.36 1028 10 16.0934 0 0
6:52 pm 18:52 Partly Cloudy 49 9.4 27 -2.8 43 43 NNW 13 20 30.38 1029 10 16.0934 0 0
7:52 pm 19:52 Mostly Clear 48 8.9 29 -1.7 48 48 NW 8 13 30.4 1030 10 16.0934 0 0
8:52 pm 20:52 Mostly Clear 46 7.8 30 -1.1 54 54 NNW 8 13 30.42 1030 10 16.0934 0 0
9:52 pm 21:52 Partly Cloudy 46 7.8 29 -1.7 51 51 NW 9 15 30.43 1031 10 16.0934 0 0
10:52 pm 22:52 Mostly Clear 44 6.7 29 -1.7 55 55 NW 8 13 30.45 1031 10 16.0934 0 0
11:52 pm 23:52 Mostly Clear 41 5 31 -0.6 67 67 NNW 7 11 30.45 1031 10 16.0934 0 0

Powered by AerisWeather